Location: Albany
(35.0000°S, 118.0000°E)
Time: 08:22:04
(UTC-04:00)

CZ-4B R/B - Visible Passes

Search period start: 23 October 2014 00:00
Search period end: 02 November 2014 00:00
Orbit: 494 x 673 km, 97.6° (Epoch: 22 October)

Date Brightness Start Highest point End Pass type
(mag) Time Alt. Az. Time Alt. Az. Time Alt. Az.
23 Oct 4.4 15:04:50 15° NE 15:07:26 33° ESE 15:10:50 10° S visible
23 Oct 4.6 16:41:38 10° WNW 16:43:00 12° W 16:44:22 10° WSW visible
24 Oct 4.0 15:10:49 15° NE 15:13:30 40° ESE 15:17:04 10° S visible
25 Oct 3.6 15:16:47 15° NE 15:19:35 49° ESE 15:23:16 10° S visible
26 Oct 3.2 15:22:45 15° NNE 15:25:39 60° ESE 15:29:26 10° S visible
27 Oct 2.8 15:28:43 15° NNE 15:31:44 74° ESE 15:35:34 10° S visible
28 Oct 2.6 15:34:41 14° NNE 15:37:48 90° WNW 15:41:41 10° SSW visible
29 Oct 2.6 15:40:38 13° N 15:43:52 74° W 15:47:45 10° SSW visible
30 Oct 2.7 15:46:35 12° N 15:49:56 60° W 15:53:48 10° SSW visible
31 Oct 2.9 15:52:32 11° N 15:56:00 49° W 15:59:49 10° SSW visible
01 Nov 6.0 14:25:49 10° E 14:27:09 12° ESE 14:28:29 10° SE visible
01 Nov 3.2 15:58:32 10° N 16:02:04 40° W 16:05:49 10° SSW visible
